User: anonymous   Login
Location: *
(90.0000°N, 180.0000°W)
Time: 19:22:01
(UTC+02:00)
Language:

Cosmos 1825 - Orbit

View from above orbital plane
View from above orbital plane
View from above satellite
View from above satellite

Ground track
Ground track

The orbit data is extracted from the following two-line orbital elements,

1 17566U 87024A   15087.49753009  .00006773  00000-0  35879-3 0  9992
2 17566 082.5083 013.2843 0005157 133.4997 226.6665 15.15239180530756
Epoch (UTC): 28 March 2015 11:56:26
Eccentricity: 0.0005157
inclination: 82.5083°
perigee height: 517 km
apogee height: 524 km
right ascension of ascending node: 13.2843°
argument of perigee: 133.4997°
revolutions per day: 15.15239180
mean anomaly at epoch: 226.6665°
orbit number at epoch: 53075

The dashed part of the orbit path shows where the satellite is in the earth's shadow,  

DLR